Hourly Weather Ho Chi Minh

Today, 20 September, Sunday

Time Temperature Precipitation Wind Pressure Humidity
00:00 +28°C° 0 mm 1 mps 757 mmHg 86%
01:00 +28°C° 0 mm 1 mps 757 mmHg 86%
02:00 +28°C° 0 mm 1 mps 756 mmHg 86%
03:00 +27°C° 0 mm 1 mps 756 mmHg 86%
04:00 +27°C° 0 mm 1 mps 755 mmHg 87%
05:00 +28°C° 0 mm 1 mps 756 mmHg 86%
06:00 +28°C° 0 mm 1 mps 756 mmHg 85%
07:00 +28°C° 0 mm 1 mps 757 mmHg 83%
08:00 +30°C° 0 mm 1 mps 757 mmHg 77%
09:00 +31°C° 0 mm 1 mps 757 mmHg 70%
10:00 +33°C° 0 mm 1 mps 758 mmHg 64%
11:00 +34°C° 0.1 mm 2 mps 757 mmHg 62%
12:00 +35°C° 0.1 mm 2 mps 756 mmHg 60%
13:00 +36°C° 0 mm 2 mps 756 mmHg 56%
14:00 +35°C° 1.4 mm 2 mps 755 mmHg 62%
15:00 +34°C° 1.4 mm 2 mps 755 mmHg 67%
16:00 +32°C° 1.4 mm 2 mps 755 mmHg 72%
17:00 +31°C° 1.1 mm 2 mps 755 mmHg 76%
18:00 +30°C° 1.1 mm 2 mps 756 mmHg 80%
19:00 +29°C° 1.1 mm 2 mps 756 mmHg 83%
20:00 +29°C° 0.1 mm 1 mps 757 mmHg 84%
21:00 +29°C° 0.1 mm 1 mps 757 mmHg 84%
22:00 +29°C° 0.1 mm 1 mps 758 mmHg 84%
23:00 +28°C° 0 mm 1 mps 757 mmHg 85%

Tomorrow, 21 September, Monday

Time Temperature Precipitation Wind Pressure Humidity
00:00 +28°C° 0 mm 1 mps 757 mmHg 86%
01:00 +28°C° 0 mm 1 mps 757 mmHg 86%
02:00 +28°C° 0 mm 1 mps 756 mmHg 86%
03:00 +27°C° 0 mm 1 mps 756 mmHg 86%
04:00 +27°C° 0 mm 1 mps 756 mmHg 87%
05:00 +27°C° 0.1 mm 1 mps 756 mmHg 86%
06:00 +28°C° 0.1 mm 1 mps 756 mmHg 85%
07:00 +28°C° 0.1 mm 1 mps 757 mmHg 84%
08:00 +29°C° 0.1 mm 2 mps 757 mmHg 80%
09:00 +31°C° 0.1 mm 3 mps 757 mmHg 76%
10:00 +33°C° 0.1 mm 3 mps 757 mmHg 73%
11:00 +34°C° 0.1 mm 3 mps 757 mmHg 70%
12:00 +34°C° 0.1 mm 3 mps 756 mmHg 67%
13:00 +35°C° 0.1 mm 3 mps 755 mmHg 64%
14:00 +35°C° 0.6 mm 2 mps 755 mmHg 66%
15:00 +34°C° 0.6 mm 2 mps 754 mmHg 68%
16:00 +34°C° 0.6 mm 2 mps 754 mmHg 70%
17:00 +32°C° 0.6 mm 1 mps 754 mmHg 73%
18:00 +31°C° 0.6 mm 1 mps 755 mmHg 77%
19:00 +30°C° 0.6 mm 1 mps 755 mmHg 81%
20:00 +30°C° 0.5 mm 1 mps 756 mmHg 82%
21:00 +30°C° 0.5 mm 1 mps 756 mmHg 83%
22:00 +29°C° 0.5 mm 1 mps 757 mmHg 83%
23:00 +29°C° 1.4 mm 1 mps 756 mmHg 85%

Day after tomorrow, 22 September, Tuesday

Time Temperature Precipitation Wind Pressure Humidity
00:00 +29°C° 1.4 mm 1 mps 756 mmHg 86%
01:00 +28°C° 1.4 mm 1 mps 756 mmHg 88%
02:00 +28°C° 0.1 mm 1 mps 756 mmHg 88%
03:00 +28°C° 0.1 mm 1 mps 756 mmHg 89%
04:00 +28°C° 0.1 mm 1 mps 756 mmHg 90%
05:00 +28°C° 0 mm 1 mps 756 mmHg 89%
06:00 +26°C° 0 mm 0 mps 756 mmHg 87%
07:00 +27°C° 0 mm 0 mps 757 mmHg 86%
08:00 +30°C° 0.1 mm 1 mps 757 mmHg 80%
09:00 +32°C° 0.1 mm 1 mps 757 mmHg 73%
10:00 +33°C° 0.1 mm 1 mps 757 mmHg 67%
11:00 +34°C° 0.1 mm 1 mps 756 mmHg 64%
12:00 +35°C° 0.1 mm 2 mps 755 mmHg 61%
13:00 +36°C° 0.1 mm 2 mps 754 mmHg 59%
14:00 +36°C° 0.3 mm 2 mps 754 mmHg 61%
15:00 +35°C° 0.3 mm 2 mps 753 mmHg 62%
16:00 +35°C° 0.3 mm 3 mps 753 mmHg 64%
17:00 +33°C° 0.5 mm 3 mps 753 mmHg 70%
18:00 +31°C° 0.5 mm 3 mps 754 mmHg 75%
19:00 +30°C° 0.5 mm 2 mps 754 mmHg 81%
20:00 +29°C° 0.6 mm 2 mps 755 mmHg 82%
21:00 +29°C° 0.6 mm 2 mps 756 mmHg 84%
22:00 +29°C° 0.6 mm 2 mps 756 mmHg 85%
23:00 +29°C° 0.3 mm 2 mps 756 mmHg 86%

23 September, Wednesday

Time Temperature Precipitation Wind Pressure Humidity
00:00 +29°C° 0.3 mm 2 mps 756 mmHg 86%
01:00 +28°C° 0.3 mm 1 mps 756 mmHg 87%
02:00 +28°C° 0 mm 1 mps 755 mmHg 87%
03:00 +28°C° 0 mm 1 mps 755 mmHg 88%
04:00 +28°C° 0 mm 1 mps 755 mmHg 88%
05:00 +28°C° 0 mm 1 mps 755 mmHg 87%
06:00 +29°C° 0 mm 1 mps 756 mmHg 87%
07:00 +29°C° 0 mm 1 mps 756 mmHg 86%
08:00 +30°C° 0 mm 1 mps 756 mmHg 79%
09:00 +32°C° 0 mm 2 mps 756 mmHg 72%
10:00 +34°C° 0 mm 2 mps 756 mmHg 65%
11:00 +35°C° 0.1 mm 2 mps 756 mmHg 62%
12:00 +36°C° 0.1 mm 2 mps 755 mmHg 58%
13:00 +37°C° 0.1 mm 2 mps 754 mmHg 55%
14:00 +36°C° 0.9 mm 3 mps 754 mmHg 59%
15:00 +35°C° 0.9 mm 3 mps 754 mmHg 64%
16:00 +34°C° 0.9 mm 4 mps 753 mmHg 68%
17:00 +33°C° 1 mm 3 mps 754 mmHg 73%
18:00 +31°C° 1 mm 3 mps 755 mmHg 77%
19:00 +30°C° 1 mm 3 mps 755 mmHg 81%
20:00 +29°C° 0 mm 2 mps 756 mmHg 83%
21:00 +29°C° 0 mm 2 mps 756 mmHg 85%
22:00 +29°C° 0 mm 2 mps 757 mmHg 87%
23:00 +29°C° 0.6 mm 2 mps 757 mmHg 88%

24 September, Thursday

Time Temperature Precipitation Wind Pressure Humidity
00:00 +28°C° 0.6 mm 2 mps 756 mmHg 88%
01:00 +28°C° 0.6 mm 2 mps 756 mmHg 89%
02:00 +28°C° 3.1 mm 3 mps 756 mmHg 87%
03:00 +28°C° 3.1 mm 3 mps 756 mmHg 86%
04:00 +28°C° 3.1 mm 3 mps 756 mmHg 85%
05:00 +28°C° 0.4 mm 2 mps 756 mmHg 85%
06:00 +28°C° 0.4 mm 2 mps 757 mmHg 86%
07:00 +28°C° 0.4 mm 2 mps 757 mmHg 87%
08:00 +29°C° 0 mm 2 mps 757 mmHg 80%
09:00 +31°C° 0 mm 2 mps 757 mmHg 74%
10:00 +32°C° 0 mm 2 mps 757 mmHg 67%
11:00 +34°C° 0 mm 2 mps 757 mmHg 65%
12:00 +35°C° 0 mm 3 mps 756 mmHg 62%
13:00 +35°C° 0 mm 3 mps 755 mmHg 60%
14:00 +35°C° 0.7 mm 3 mps 755 mmHg 63%
15:00 +34°C° 0.7 mm 3 mps 755 mmHg 66%
16:00 +34°C° 0.7 mm 3 mps 754 mmHg 69%
17:00 +33°C° 0.8 mm 3 mps 755 mmHg 72%
18:00 +30°C° 0.8 mm 3 mps 755 mmHg 76%
19:00 +29°C° 0.8 mm 2 mps 756 mmHg 80%
20:00 +29°C° 0.1 mm 2 mps 756 mmHg 82%
21:00 +29°C° 0.1 mm 2 mps 757 mmHg 84%
22:00 +28°C° 0.1 mm 2 mps 757 mmHg 86%
23:00 +28°C° 0.2 mm 2 mps 757 mmHg 86%

25 September, Friday

Time Temperature Precipitation Wind Pressure Humidity
00:00 +28°C° 0.2 mm 2 mps 757 mmHg 87%
01:00 +28°C° 0.2 mm 2 mps 756 mmHg 87%
02:00 +28°C° 0 mm 2 mps 756 mmHg 88%
03:00 +28°C° 0 mm 2 mps 756 mmHg 88%
04:00 +27°C° 0 mm 2 mps 755 mmHg 89%
05:00 +28°C° 0 mm 1 mps 756 mmHg 88%
06:00 +28°C° 0 mm 1 mps 756 mmHg 87%
07:00 +28°C° 0 mm 1 mps 756 mmHg 86%
08:00 +30°C° 0.1 mm 2 mps 756 mmHg 79%
09:00 +33°C° 0.1 mm 3 mps 756 mmHg 72%
10:00 +34°C° 0.1 mm 3 mps 756 mmHg 65%
11:00 +34°C° 0.9 mm 3 mps 756 mmHg 64%
12:00 +35°C° 0.9 mm 3 mps 755 mmHg 63%
13:00 +35°C° 0.9 mm 4 mps 754 mmHg 62%
14:00 +34°C° 2.2 mm 3 mps 754 mmHg 68%
15:00 +31°C° 2.2 mm 3 mps 753 mmHg 74%
16:00 +30°C° 2.2 mm 3 mps 753 mmHg 79%
17:00 +29°C° 1.2 mm 3 mps 754 mmHg 82%
18:00 +29°C° 1.2 mm 3 mps 754 mmHg 84%
19:00 +28°C° 1.2 mm 4 mps 755 mmHg 87%
20:00 +28°C° 0.6 mm 3 mps 756 mmHg 88%
21:00 +28°C° 0.6 mm 2 mps 756 mmHg 88%
22:00 +28°C° 0.6 mm 1 mps 757 mmHg 89%
23:00 +28°C° 0.1 mm 1 mps 756 mmHg 89%
Show more